Regional Weather Roundup
Issued by NWS Green Bay, WI

Home | Current Version | Previous Version | Graphics & Text | Print | Product List | Glossary Off
Versions: 1 2 3 4 5 6 7 8 9 10 11 12 13 14 15 16 17 18 19 20 21 22 23 24 25 26 27 28 29 30 31 32 33 34 35 36 37 38 39 40 41 42 43 44 45 46 47 48 49 50

000
ASUS43 KGRB 230511
RWRGRB

NORTH-CENTRAL AND NORTHEAST WISCONSIN REGIONAL WEATHER ROUNDUP
NATIONAL WEATHER SERVICE GREEN BAY WI
1200 AM CDT SUN JUL 23 2017

WIZ005-009-010>012-018-019-230600-
NORTH CENTRAL WISCONSIN

CITY           SKY/WX    TMP DP  RH WIND       PRES   REMARKS
IRONWOOD       MOCLDY    59  58  96 W3        29.83F
MANITOWISH WTR CLOUDY    64  64 100 CALM      29.84S
ARBOR VITAE    TSTM      64  62  91 N3G41     29.85R VSB 1
EAGLE RIVER    MOCLDY    64  64  99 CALM      29.82S
LAND O LAKES   PTCLDY    64  64 100 CALM      29.85R
RHINELANDER    CLOUDY    62  61  96 CALM      29.83S FOG
PHILLIPS       PTCLDY    63  63 100 CALM      29.84S
ANTIGO         PTCLDY    64  64  99 CALM      29.83R
TOMAHAWK         N/A     61  60  97 CALM      29.84R
MERRILL        CLEAR     67  67  99 SW3       29.82R
$$

WIZ013-073-230600-
NORTHEAST WISCONSIN

CITY           SKY/WX    TMP DP  RH WIND       PRES   REMARKS
IRON MOUNTAIN  CLOUDY    64  62  93 CALM      29.80R FOG
MARINETTE      CLOUDY    71  65  81 S9        29.80F
OCONTO         CLOUDY    66  64  96 CALM      29.79F
$$

WIZ017-030-035>037-045-230600-
CENTRAL WISCONSIN

CITY           SKY/WX    TMP DP  RH WIND       PRES   REMARKS
MEDFORD        PTCLDY    66  64  93 W5        29.84R
WAUSAU         CLEAR     72  67  84 NW6       29.80R
MOSINEE        CLEAR     68  68 100 W3        29.83R
MARSHFIELD     CLEAR     69  65  86 NW6       29.82S
WISC RAPIDS    CLEAR     72  67  84 W7        29.83R
STEVENS POINT  CLEAR     72  68  87 W6        29.82R
WAUPACA        PTCLDY    74  72  92 W5        29.79R
SHAWANO        CLOUDY    71  70  94 E5        29.79R
CLINTONVILLE   CLOUDY    73  68  83 CALM      29.79R
WAUTOMA        PTCLDY    73  71  93 W6        29.81R
$$

WIZ038-039-048-051-230600-
FOX VALLEY

CITY           SKY/WX    TMP DP  RH WIND       PRES   REMARKS
NWS GREEN BAY  TSTM      69  69 100 NE7       29.79S FOG
APPLETON       CLOUDY    70  68  94 SW5       29.78S
OSHKOSH        LGT RAIN  74  70  87 NW6       29.79R
FOND DU LAC    PTCLDY    74  68  81 SW6       29.79S
$$

WIZ022-050-052-230600-
EAST CENTRAL WISCONSIN

CITY           SKY/WX    TMP DP  RH WIND       PRES   REMARKS
EPHRAIM        MOCLDY    66  63  91 S5        29.78F
WASHINGTON ISL FAIR      65  63  96 CALM      29.78S
STURGEON BAY   LGT RAIN  68  66  93 N5        29.83R
MANITOWOC      CLOUDY    72  63  73 N3        29.81R
SHEBOYGAN      PTCLDY    68  67  96 CALM      29.79R
$$

LMZ563-521-522-541>543-230600-
LAKESHORE

STATION/POSITION TIME  TEMP    WIND        PRES    VSBY  WAVE
                       AIR SEA DIR/SP/G                  HT/PER
                 (UTC) (F)     (DEG/KT/KT) (MB)    (MI)  (FT/S)
SHEBOYGAN LKSHOR 0500   70     200/  5/  6 1008.5R
KEWAUNEE LKSHORE 0448   66     270/  7/ 11 1009.4R
NORTHPORT PIER   0440   68     160/  8/ 11 1008.5F
N MID LAKE BUOY  0450   69 69  180/  8/ 10 1008.3F         0
S GREEN BAY BUOY 0500   66 73  170/ 10/ 10 1008.8
SISTER BAY LKSHO 0502   68     160/  8/ 10   N/A
CHAMBERS ISLAND  0440   71     170/  6/ 12 1008.1F
MENOMINEE LKSHOR 0448   72     120/ 11/ 14 1009.0R
$$



USA.gov is the U.S. government's official web portal to all federal, state and local government web resources and services.